Location: Unspecified
(51.6250°N, 0.8230°E)
Time: 22:44:12
(UTC+00:00)

Intercosmos 25 - Pass Details

Date: 30 January 2021
Orbit: 438 x 2877 km, 82.6° (Epoch: 25 February)

Event Time Altitude Azimuth Distance (km) Brightness Sun altitude
Rises 17:24:55 0° 240° (WSW) 5,787 10.7 -6.8°
Reaches altitude 10° 17:30:17 10° 255° (WSW) 4,329 9.6 -7.6°
Maximum altitude 17:37:26 20° 299° (WNW) 2,891 7.6 -8.7°
Drops below altitude 10° 17:42:42 10° 345° (NNW) 3,037 7.1 -9.5°
Sets 17:45:41 0° 3° (N) 3,653 7.3 -9.9°
